Hourly Weather Abanto

Today, 26 October, Monday

Time Temperature Precipitation Wind Pressure Humidity
00:00 +5°C° 0.4 mm 8 mps 677 mmHg 78%
01:00 +5°C° 0.3 mm 7 mps 677 mmHg 77%
02:00 +5°C° 0.3 mm 7 mps 677 mmHg 76%
03:00 +4°C° 0.3 mm 7 mps 677 mmHg 74%
04:00 +4°C° 0 mm 7 mps 677 mmHg 75%
05:00 +4°C° 0 mm 7 mps 678 mmHg 76%
06:00 +3°C° 0 mm 7 mps 678 mmHg 77%
07:00 +4°C° 0 mm 8 mps 678 mmHg 73%
08:00 +4°C° 0 mm 8 mps 679 mmHg 70%
09:00 +5°C° 0 mm 9 mps 679 mmHg 67%
10:00 +5°C° 0 mm 9 mps 679 mmHg 63%
11:00 +6°C° 0 mm 10 mps 679 mmHg 60%
12:00 +6°C° 0 mm 10 mps 679 mmHg 57%
13:00 +7°C° 0 mm 10 mps 679 mmHg 55%
14:00 +7°C° 0 mm 9 mps 679 mmHg 53%
15:00 +7°C° 0 mm 9 mps 679 mmHg 51%
16:00 +6°C° 0 mm 8 mps 680 mmHg 54%
17:00 +6°C° 0 mm 7 mps 680 mmHg 58%
18:00 +5°C° 0 mm 6 mps 680 mmHg 62%
19:00 +5°C° 0 mm 5 mps 681 mmHg 64%
20:00 +5°C° 0 mm 5 mps 681 mmHg 67%
21:00 +4°C° 0 mm 4 mps 681 mmHg 70%
22:00 +4°C° 0 mm 4 mps 681 mmHg 73%
23:00 +4°C° 0 mm 4 mps 681 mmHg 76%

Tomorrow, 27 October, Tuesday

Time Temperature Precipitation Wind Pressure Humidity
00:00 +3°C° 0 mm 4 mps 681 mmHg 79%
01:00 +3°C° 0 mm 4 mps 681 mmHg 80%
02:00 +3°C° 0 mm 4 mps 681 mmHg 81%
03:00 +3°C° 0 mm 4 mps 681 mmHg 82%
04:00 +3°C° 0 mm 4 mps 681 mmHg 81%
05:00 +3°C° 0 mm 4 mps 680 mmHg 81%
06:00 +3°C° 0 mm 4 mps 680 mmHg 81%
07:00 +3°C° 0 mm 5 mps 681 mmHg 75%
08:00 +4°C° 0 mm 6 mps 681 mmHg 69%
09:00 +5°C° 0 mm 7 mps 681 mmHg 62%
10:00 +6°C° 0 mm 7 mps 681 mmHg 60%
11:00 +8°C° 0 mm 7 mps 681 mmHg 57%
12:00 +9°C° 0 mm 8 mps 681 mmHg 55%
13:00 +9°C° 0 mm 8 mps 681 mmHg 57%
14:00 +9°C° 0 mm 7 mps 681 mmHg 59%
15:00 +9°C° 0 mm 7 mps 680 mmHg 62%
16:00 +9°C° 0 mm 6 mps 680 mmHg 64%
17:00 +8°C° 0 mm 6 mps 680 mmHg 66%
18:00 +8°C° 0 mm 5 mps 681 mmHg 68%
19:00 +8°C° 0 mm 5 mps 681 mmHg 70%
20:00 +7°C° 0 mm 5 mps 681 mmHg 72%
21:00 +7°C° 0 mm 5 mps 681 mmHg 74%
22:00 +7°C° 0 mm 5 mps 681 mmHg 75%
23:00 +7°C° 0 mm 5 mps 681 mmHg 75%

Day after tomorrow, 28 October, Wednesday

Time Temperature Precipitation Wind Pressure Humidity
00:00 +7°C° 0 mm 5 mps 681 mmHg 76%
01:00 +7°C° 0 mm 5 mps 681 mmHg 78%
02:00 +7°C° 0 mm 4 mps 681 mmHg 80%
03:00 +7°C° 0 mm 4 mps 681 mmHg 83%
04:00 +6°C° 0 mm 4 mps 681 mmHg 85%
05:00 +6°C° 0 mm 4 mps 681 mmHg 88%
06:00 +7°C° 0 mm 3 mps 681 mmHg 90%
07:00 +7°C° 0 mm 4 mps 681 mmHg 86%
08:00 +8°C° 0 mm 4 mps 681 mmHg 81%
09:00 +11°C° 0 mm 4 mps 682 mmHg 77%
10:00 +12°C° 0 mm 5 mps 682 mmHg 72%
11:00 +13°C° 0 mm 6 mps 682 mmHg 66%
12:00 +15°C° 0 mm 7 mps 683 mmHg 61%
13:00 +15°C° 0 mm 7 mps 682 mmHg 60%
14:00 +15°C° 0 mm 7 mps 682 mmHg 60%
15:00 +15°C° 0 mm 7 mps 682 mmHg 59%
16:00 +13°C° 0 mm 6 mps 682 mmHg 66%
17:00 +12°C° 0 mm 5 mps 682 mmHg 72%
18:00 +10°C° 0 mm 5 mps 682 mmHg 79%
19:00 +10°C° 0 mm 4 mps 682 mmHg 82%
20:00 +10°C° 0 mm 4 mps 683 mmHg 84%
21:00 +10°C° 0 mm 3 mps 683 mmHg 87%
22:00 +9°C° 0 mm 3 mps 683 mmHg 88%
23:00 +9°C° 0 mm 2 mps 683 mmHg 88%

29 October, Thursday

Time Temperature Precipitation Wind Pressure Humidity
00:00 +8°C° 0 mm 2 mps 683 mmHg 89%
01:00 +9°C° 0 mm 1 mps 683 mmHg 90%
02:00 +9°C° 0 mm 1 mps 683 mmHg 90%
03:00 +9°C° 0 mm 1 mps 683 mmHg 91%
04:00 +9°C° 0 mm 1 mps 683 mmHg 90%
05:00 +9°C° 0 mm 1 mps 683 mmHg 89%
06:00 +9°C° 0 mm 1 mps 683 mmHg 89%
07:00 +10°C° 0 mm 1 mps 684 mmHg 84%
08:00 +11°C° 0 mm 1 mps 684 mmHg 79%
09:00 +12°C° 0 mm 1 mps 685 mmHg 74%
10:00 +14°C° 0 mm 1 mps 685 mmHg 67%
11:00 +15°C° 0 mm 1 mps 685 mmHg 59%
12:00 +16°C° 0 mm 2 mps 685 mmHg 52%
13:00 +17°C° 0 mm 2 mps 685 mmHg 49%
14:00 +18°C° 0 mm 3 mps 685 mmHg 45%
15:00 +18°C° 0 mm 3 mps 685 mmHg 42%
16:00 +17°C° 0 mm 3 mps 685 mmHg 50%
17:00 +14°C° 0 mm 3 mps 685 mmHg 58%
18:00 +12°C° 0 mm 3 mps 684 mmHg 66%
19:00 +12°C° 0 mm 2 mps 684 mmHg 69%
20:00 +12°C° 0 mm 2 mps 685 mmHg 73%
21:00 +10°C° 0 mm 2 mps 685 mmHg 77%
22:00 +10°C° 0 mm 2 mps 685 mmHg 77%
23:00 +10°C° 0 mm 2 mps 685 mmHg 78%

30 October, Friday

Time Temperature Precipitation Wind Pressure Humidity
00:00 +9°C° 0 mm 2 mps 685 mmHg 79%
01:00 +9°C° 0 mm 2 mps 684 mmHg 80%
02:00 +9°C° 0 mm 2 mps 684 mmHg 81%
03:00 +9°C° 0 mm 2 mps 684 mmHg 83%
04:00 +8°C° 0 mm 2 mps 684 mmHg 83%
05:00 +8°C° 0 mm 2 mps 684 mmHg 84%
06:00 +8°C° 0 mm 2 mps 683 mmHg 85%
07:00 +10°C° 0 mm 3 mps 684 mmHg 77%
08:00 +12°C° 0 mm 3 mps 685 mmHg 70%
09:00 +14°C° 0 mm 4 mps 685 mmHg 62%
10:00 +17°C° 0 mm 4 mps 685 mmHg 56%
11:00 +17°C° 0 mm 5 mps 686 mmHg 50%
12:00 +20°C° 0 mm 6 mps 686 mmHg 44%
13:00 +20°C° 0 mm 5 mps 685 mmHg 43%
14:00 +20°C° 0 mm 5 mps 685 mmHg 43%
15:00 +20°C° 0 mm 5 mps 684 mmHg 42%
16:00 +17°C° 0 mm 5 mps 684 mmHg 49%
17:00 +17°C° 0 mm 4 mps 684 mmHg 55%
18:00 +14°C° 0 mm 3 mps 683 mmHg 61%
19:00 +13°C° 0 mm 3 mps 683 mmHg 63%
20:00 +13°C° 0 mm 3 mps 683 mmHg 65%
21:00 +12°C° 0 mm 3 mps 683 mmHg 67%
22:00 +12°C° 0 mm 3 mps 683 mmHg 66%
23:00 +11°C° 0 mm 3 mps 683 mmHg 66%

31 October, Saturday

Time Temperature Precipitation Wind Pressure Humidity
00:00 +11°C° 0 mm 3 mps 683 mmHg 65%
01:00 +11°C° 0 mm 3 mps 683 mmHg 67%
02:00 +10°C° 0 mm 3 mps 683 mmHg 69%
03:00 +10°C° 0 mm 3 mps 683 mmHg 71%
04:00 +10°C° 0 mm 3 mps 682 mmHg 74%
05:00 +10°C° 0 mm 3 mps 682 mmHg 76%
06:00 +10°C° 0 mm 3 mps 682 mmHg 78%
Show more